This is the latest recevied weather packets stored in our database for station/object HG5OJG-6. If no packets are shown the sender has not sent any weather packets the latest 10 day(s).
| Time | Temp. | Humidity | Pressure | Rain* | Wind** | Luminosity | Snow |
|---|---|---|---|---|---|---|---|
| 1778204772 | 11.67° C | 91% | 1014 hPa | 0 mm | - | 0 W/m² | - |
| 1778203610 | 11.67° C | 90% | 1013.8 hPa | 0 mm | - | 0 W/m² | - |
| 1778202376 | 12.22° C | 90% | 1013.7 hPa | 0 mm | - | 0 W/m² | - |
| 1778201770 | 12.22° C | 91% | 1013.7 hPa | 0 mm | - | 0 W/m² | - |
| 1778199973 | 12.22° C | 90% | 1013.8 hPa | 0 mm | - | 0 W/m² | - |
| 1778198120 | 12.22° C | 90% | 1014.1 hPa | 0 mm | - | 0 W/m² | - |
| 1778196919 | 12.78° C | 90% | 1014.3 hPa | 0 mm | - | 0 W/m² | - |
| 1778196343 | 12.78° C | 90% | 1014.4 hPa | 0 mm | - | 0 W/m² | - |
| 1778193951 | 12.78° C | 89% | 1014.5 hPa | 0 mm | - | 0 W/m² | - |
| 1778192758 | 12.78° C | 89% | 1014.5 hPa | 0 mm | - | 0 W/m² | - |
| 1778191546 | 12.78° C | 89% | 1014.4 hPa | 0 mm | - | 0 W/m² | - |
| 1778190960 | 12.78° C | 89% | 1014.4 hPa | 0 mm | - | 0 W/m² | - |
| 1778190345 | 12.78° C | 89% | 1014.4 hPa | 0 mm | - | 0 W/m² | - |
| 1778188575 | 13.33° C | 88% | 1014.3 hPa | 0 mm | - | 0 W/m² | - |
| 1778187969 | 13.33° C | 88% | 1014.4 hPa | 0 mm | - | 0 W/m² | - |
| 1778186152 | 13.89° C | 88% | 1014.4 hPa | 0 mm | - | 0 W/m² | - |
| 1778185576 | 13.89° C | 87% | 1014.3 hPa | 0 mm | - | 0 W/m² | - |
| 1778181365 | 14.44° C | 87% | 1014 hPa | 0 mm | - | 0 W/m² | - |
| 1778180769 | 14.44° C | 86% | 1014 hPa | 0 mm | - | 0 W/m² | - |
| 1778180173 | 14.44° C | 86% | 1013.7 hPa | 0 mm | - | 0 W/m² | - |
| 1778179597 | 14.44° C | 86% | 1013.7 hPa | 0 mm | - | 0 W/m² | - |
| 1778175318 | 15° C | 83% | 1012.5 hPa | 1.27 mm | - | 4 W/m² | - |
| 1778174117 | 15.56° C | 82% | 1012.9 hPa | 1.52 mm | - | 13 W/m² | - |
| 1778170521 | 16.67° C | 77% | 1012.8 hPa | 0 mm | - | 28 W/m² | - |
| 1778169926 | 16.67° C | 77% | 1012.8 hPa | 0 mm | - | 38 W/m² | - |
* Rain latest hour (hover to see other rain measurements)
** Current wind speed in m/s (hover to see current wind gust speed)